Welcome to the New NWS' Forecast!
Most changes are behind the scenes, but click here for differences you might notice.
Latest weather observations around

Monticello, Monticello Municipal Airport/Ellis Field (KLLQ)

Using English Units (Switch to International System of Units)
Date/ Time (CDT) Wind (mph) Vis. (mi) Weather Sky Cond. Temp (°F) Rel. Humidity Wind Chill (°F) Heat Index (°F) Pressure Precip. (in)
Air Dwpt 6 hour Altimeter (inHg) Sea level (inHg) 1 hr 3 hr 6 hr
Max Min
Apr 28 05:53 E 5 10 Clear CLR 57 55     93%     29.75 29.74      
Apr 28 04:53 Calm 10 Mostly Clear FEW032 58 55     90%     29.74 29.73      
Apr 28 03:53 Calm 10 Clear CLR 57 54     89%     29.74 29.73      
Apr 28 02:53 ESE 3 10 Mostly Clear FEW110 58 55     90%     29.74 29.74      
Apr 28 01:53 ESE 3 10 Mostly Cloudy BKN100 57 54     89%     29.75 29.75      
Apr 28 00:53 ESE 3 10 Cloudy OVC100 58 54     87%     29.78 29.77      
Apr 27 23:53 E 5 10 Clear CLR 57 54     89%     29.78 29.78      
Apr 27 22:53 E 3 10 Clear CLR 59 54     83%     29.79 29.78      
Apr 27 21:53 E 6 10 Clear CLR 60 54     80%     29.79 29.78      
Apr 27 20:53 E 6 10 Clear CLR 61 54     78%     29.75 29.75      
Apr 27 19:53 E 5 10 Clear CLR 64 54     70%     29.75 29.74      
Apr 27 18:53 ESE 7 10 Clear CLR 68 53     59%     29.77 29.76      
Apr 27 17:53 ESE 9 10 Clear CLR 70 53     55%     29.78 29.78      
Apr 27 16:53 SSE 9 10 Clear CLR 71 52     51%   70 29.79 29.78      
Apr 27 15:53 5 10 Clear CLR 71 50     47%   70 29.8 29.79      
Apr 27 14:53 5 10 Clear CLR 70 50     49%     29.83 29.82      
Apr 27 13:53 5 10 Clear CLR 67 50     55%     29.84 29.84      
Apr 27 12:53 3 10 Clear CLR 65 47     52%     29.83 29.83      
Apr 27 11:53 NE 7 10 Clear CLR 62 47     58%     29.86 29.86      
Apr 27 10:53 3 10 Mostly Clear FEW026 60 45     57%     29.87 29.87      
Apr 27 09:53 E 6 10 Mostly Clear FEW022 58 46     65%     29.86 29.86      
Apr 27 08:53 N 3 10 Clear CLR 56 46     69%     29.85 29.84      
Apr 27 07:53 Calm 10 Clear CLR 52 48     86%     29.83 29.82      
Apr 27 06:53 Calm 10 Clear CLR 49 47     93%     29.81 29.8      
Apr 27 05:53 W 5 10 Clear CLR 49 47     93% 47   29.77 29.77      
Apr 27 04:53 WNW 6 10 Clear CLR 51 48     89%     29.75 29.74      
Apr 27 04:29 W 5 10 Partly Cloudy FEW011 SCT017 52 48     86%     29.75        
Apr 27 03:53 W 3 10 Cloudy BKN015 OVC022 53 48     83%     29.75 29.74      
Apr 27 02:53 WNW 8 10 Cloudy OVC016 53 48     83%     29.74 29.73      
Apr 27 02:41 WNW 8 10 Cloudy OVC016 53 47     80%     29.73        
Apr 27 01:53 WNW 10 10 Cloudy OVC011 54 50     86%     29.73 29.72      
Apr 27 01:50 WNW 10 10 Cloudy OVC011 54 50     88%     29.73        
Apr 27 00:53 WNW 11 8 Cloudy OVC007 55 52     89%     29.72 29.71 0   0
Apr 27 00:10 WNW 13 6 Light Rain and Fog/Mist BKN008 OVC015 58 56     93%     29.69   0    
Apr 26 23:53 W 10 10 Cloudy OVC013 59 55     87%     29.68 29.67      
Apr 26 22:53 WNW 10 10 Cloudy BKN007 OVC018 62 58     86%     29.64 29.63      
Apr 26 21:53 W 7 10 Cloudy OVC007 63 61     93%     29.61 29.6   0  
Apr 26 21:24 W 9 10 Cloudy BKN007 BKN012 OVC019 64 61     90%     29.58        
Apr 26 21:15 W 6 10 Cloudy SCT007 BKN012 OVC019 64 61     90%     29.58        
Apr 26 20:53 WSW 8 10 Cloudy BKN006 BKN013 OVC018 64 62     93%     29.57 29.56 0    
Apr 26 20:23 W 5 10 Cloudy BKN006 BKN032 OVC110 64 62     93%     29.51   0    
Apr 26 20:05 W 6 10 Mostly Cloudy BKN008 BKN100 BKN120 64 61     90%     29.51   0    
Apr 26 19:53 WSW 7 10 Light Rain BKN007 OVC110 64 61     90%     29.53 29.52 0    
Apr 26 19:39 SSW 10 9 Thunderstorms and Rain OVC110 64 62     93%     29.56   0    
Apr 26 19:18 Calm 9 Light Rain SCT006 BKN085 OVC100 64 62     93%     29.47   0    
Apr 26 19:03 S 6 8 Light Rain BKN005 BKN048 OVC095 64 62     93%     29.51   0    
Apr 26 18:53 3 5 Thunderstorms and Rain and Fog/Mist FEW006 BKN046 OVC095 63 62     97%     29.5 29.49 1   1
Apr 26 18:45 WSW 8 3 Thunderstorms and Rain and Fog/Mist FEW008 OVC039 63 61     93%     29.52   1    
Apr 26 18:42 WSW 7 2.5 Thunderstorms and Heavy Rain and Fog/Mist FEW010 OVC037 63 61     93%     29.53   1    
Apr 26 18:32 W 10 2 Thunderstorms and Rain and Fog/Mist FEW010 BKN027 OVC065 63 61     93%     29.51   1    
Apr 26 18:26 SW 8 0.75 Thunderstorms and Heavy Rain and Fog/Mist BKN014 BKN027 OVC043 63 61     93%     29.51   1    
Apr 26 17:58 W 8 1.75 Thunderstorms and Heavy Rain and Fog/Mist SCT013 BKN023 OVC035 65 61     87%     29.51   0    
Apr 26 17:53 WSW 13 8 Thunderstorms SCT013 SCT026 OVC035 65 61     87%     29.51   0    
Apr 26 17:32 S 5 3 Thunderstorms and Rain and Fog/Mist FEW013 BKN036 OVC070 73 69     87%   74 29.44   0    
Apr 26 17:23 S 9 1.75 Thunderstorms and Heavy Rain FEW019 BKN060 OVC100 74 68     82%   75 29.45   0    
Apr 26 17:06 SSE 8 10 Thunderstorms FEW030 BKN075 OVC110 75 68     79%   76 29.44   0    
Apr 26 16:53 SSE 8 9 Light Rain SCT035 BKN050 OVC085 75 68     79%   76 29.45 29.44 0    
Apr 26 15:53 S 11 10 Mostly Cloudy SCT040 SCT050 BKN090 80 67     64%   82 29.47 29.46      
Apr 26 14:53 SSE 14 10 Partly Cloudy FEW031 SCT085 80 66     62%   82 29.49 29.48      
Apr 26 13:53 S 9 10 Cloudy SCT029 BKN036 OVC047 77 66     69%   78 29.55 29.54      
Apr 26 13:48 SSE 9 10 Cloudy SCT024 BKN030 OVC035 77 66     69%   78 29.55        
Apr 26 13:08 S 11 10 Cloudy SCT024 BKN029 OVC075 76 65     69%   76 29.58        
Apr 26 12:53 SSE 14 10 Cloudy SCT023 BKN030 OVC070 76 65     69%   76 29.59 29.58      
Apr 26 12:51 S 10 10 Cloudy BKN025 BKN030 OVC070 75 64     69%   76 29.59        
Apr 26 12:27 SSE 14 10 Cloudy SCT020 SCT026 OVC070 76 65     69%   76 29.6        
Apr 26 11:53 SSE 13 10 Cloudy BKN017 BKN043 OVC065 73 64     73%   73 29.61 29.6      
Apr 26 10:53 SSE 10 10 Cloudy SCT014 OVC042 70 64     81%     29.62 29.61      
Apr 26 09:53 SSE 9 10 Cloudy BKN010 BKN039 OVC047 67 63     87%     29.62 29.61      
Apr 26 09:35 SE 13 10 Cloudy SCT009 BKN013 OVC055 68 63     84%     29.61        
Apr 26 08:53 SE 8 10 Cloudy BKN012 OVC031 68 63     84%     29.63 29.62      
Apr 26 08:30 SE 8 10 Cloudy BKN012 BKN020 OVC047 68 63     84%     29.63        
Apr 26 08:09 SE 10 10 Cloudy SCT014 BKN027 OVC047 68 63     84%     29.63        
Apr 26 08:02 SSE 9 10 Cloudy SCT014 BKN030 OVC045 68 63     84%     29.63        
Apr 26 07:53 SE 8 10 Cloudy BKN014 OVC043 68 63     84%     29.63 29.62      
Apr 26 06:53 SE 8 10 Cloudy OVC038 68 63     84%     29.61 29.6      
Apr 26 06:28 SE 6 10 Cloudy FEW013 SCT017 OVC037 68 63     84%     29.6        
Apr 26 05:53 SSE 8 10 Cloudy OVC013 68 63     84%     29.6 29.58      
Apr 26 05:28 S 5 10 Cloudy BKN015 OVC040 68 62     81%     29.6        
Apr 26 04:53 SSE 7 10 Mostly Cloudy BKN041 68 62     81%     29.58 29.57      
Apr 26 03:53 SE 8 10 Cloudy OVC039 71 62     73%   71 29.58 29.57      
Apr 26 02:53 S 9 10 Cloudy OVC036 71 61     70%   71 29.58 29.57      
Apr 26 01:53 S 10 10 Cloudy OVC034 71 61     70%   71 29.6 29.58      
Apr 26 00:53 S 6 10 Cloudy OVC040 72 61     68%   72 29.61 29.59      
Apr 25 23:53 S 7 10 Cloudy OVC037 73 60     64%   73 29.61 29.6      
Apr 25 22:53 S 7 10 Mostly Cloudy BKN037 72 61     68%   72 29.62 29.61      
Apr 25 21:53 S 9 10 Clear CLR 72 61     68%   72 29.62 29.61      
Apr 25 20:53 S 6 10 Clear CLR 73 60     64%   73 29.59 29.58      
Apr 25 19:53 S 6 10 Clear CLR 75 59     57%   75 29.58 29.57      
Apr 25 18:53 S 9 10 Clear CLR 79 58     49%   79 29.58 29.57      
Apr 25 17:53 S 13 10 Clear   81 57     44%   81 29.59 29.58      
Apr 25 16:53 S 8 10 Clear CLR 82 56     41%   82 29.6 29.59      
Apr 25 15:53 S 11 10 Clear CLR 83 54     37%   82 29.61 29.61      
Apr 25 14:53 S 9 10 Clear CLR 81 53     38%   80 29.64 29.63      
Apr 25 13:53 S 10 10 Clear CLR 80 51     36%   79 29.66 29.65      
Apr 25 12:53 S 15 10 Clear CLR 77 51     40%   76 29.69 29.68      
Apr 25 11:53 S 13 10 Clear CLR 75 49     40%   74 29.71 29.7      
Apr 25 09:53 SSW 11 10 Clear CLR 71 54     55%   70 29.74 29.73      
Apr 25 08:53 SW 7 10 Clear CLR 66 54     65%     29.76 29.75      
Apr 25 07:53 SSW 7 10 Clear CLR 62 51     67%     29.75 29.74      
Apr 25 06:53 SSW 6 10 Clear CLR 59 49     69%     29.74 29.73      
Apr 25 05:53 SSW 7 10 Clear CLR 59 46     62%     29.74 29.73      
Apr 25 04:53 S 6 10 Clear CLR 56 46     69%     29.73 29.72      
Apr 25 03:53 Calm   Clear   51 47     86%     29.73 29.72      
Apr 25 02:53 Calm 10 Clear CLR 56 47     72%     29.73 29.72      
Apr 25 01:53 Calm 10 Clear CLR 57 48     72%     29.75 29.74      
Apr 25 00:53 SSE 5 10 Clear CLR 57 48     72%     29.75 29.75      
Apr 24 23:53 S 5 10 Clear CLR 60 48     64%     29.76 29.75      
Apr 24 22:53 SSE 3 10 Clear CLR 60 49     67%     29.77 29.76      
Apr 24 21:53 SSE 5 10 Clear CLR 59 50     72%     29.77 29.76      
Apr 24 20:53 Calm 10 Clear CLR 61 52     72%     29.76 29.75      
Apr 24 19:53 Calm 10 Clear CLR 66 51     59%     29.76 29.76      
Apr 24 18:53 ESE 3 10 Clear CLR 74 48     40%   73 29.75 29.75      
Apr 24 17:53 ESE 5 10 Clear CLR 76 44     32%   75 29.76 29.75      
Apr 24 16:53 Calm 10 Clear CLR 76 43     31%   75 29.78 29.78      
Apr 24 15:53 Calm 10 Clear CLR 76 42     30%   75 29.81 29.8      
Apr 24 14:53 5 10 Clear CLR 76 43     31%   75 29.84 29.84      
Apr 24 13:53 5 10 Clear CLR 74 42     32%   73 29.88 29.88      
Apr 24 12:53   10 Clear CLR 73 40     30%   71 29.91 29.91      
Apr 24 11:53 NW 9 10 Clear CLR 72 41     33%   70 29.94 29.93      
Apr 24 10:53 NNW 9 10 Clear CLR 69 43     39%     29.96 29.95      
Apr 24 09:53 NW 8 10 Clear CLR 66 45     47%     29.96 29.96      
Apr 24 08:53 WNW 9 10 Clear CLR 61 46     58%     29.96 29.96      
Apr 24 07:53 WNW 7 10 Clear CLR 56 45     67%     29.96 29.95      
Apr 24 06:53 WNW 7 10 Clear CLR 51 44     77%     29.94 29.94      
Apr 24 05:53 W 5 10 Clear CLR 48 44     86% 46   29.91 29.91      
Apr 24 04:53 W 6 10 Clear CLR 47 44     90% 44   29.9        
Apr 24 03:53 W 5 10 Clear CLR 48 45     89% 46   29.89 29.88      
Apr 24 02:53 W 6 10 Clear CLR 48 44     86% 45   29.89 29.89      
Apr 24 01:53 Calm 10 Clear CLR 47 45     93%     29.91 29.91      
Apr 24 00:53 Calm 10 Clear CLR 49 46     90%     29.93 29.93      
Apr 23 23:53 Calm 10 Clear CLR 49 46     90%     29.96 29.96      
Apr 23 22:53 Calm 10 Clear CLR 50 47     89%     29.97 29.97      
Apr 23 21:53 Calm 10 Clear CLR 52 48     86%     29.98 29.98      
Apr 23 20:53 Calm 10 Clear CLR 55 49     80%     29.96 29.96      
Apr 23 19:53 Calm 10 Clear CLR 58 50     75%     29.96 29.95      
Apr 23 18:53 3 10 Clear CLR 67 43     42%     29.95 29.94      
Apr 23 17:53 NNW 9 10 Clear CLR 68 42     39%     29.95 29.94      
Apr 23 15:53 NNW 10 10 Clear CLR 69 41     36%     29.94 29.93      
Apr 23 14:53 NNW 10 10 Clear CLR 68 43     40%     29.96 29.96      
Apr 23 13:53 NW 9 10 Mostly Clear FEW045 66 44     45%     29.96 29.96      
Apr 23 12:53 6 10 Partly Cloudy SCT042 64 44     48%     29.98 29.98      
Apr 23 11:53 NNW 8 10 Mostly Cloudy BKN037 62 44     52%     30 29.99      
Apr 23 10:53 N 9 10 Mostly Cloudy BKN034 60 45     57%     30.02 30.01      
Apr 23 09:53 N 6 10 Mostly Cloudy FEW025 BKN031 56 45     67%     30.01 30.01      
Apr 23 09:42 7 10 Mostly Cloudy SCT027 BKN034 55 45     69%     30.01        
Apr 23 08:53 NW 8 10 Cloudy SCT015 BKN020 OVC036 54 48     80%     30.01 30.01      
Apr 23 08:45 NNW 9 10 Cloudy SCT012 BKN018 OVC036 53 48     83%     30.01        
Apr 23 08:28 NW 8 10 Cloudy OVC014 52 48     86%     30.02        
Apr 23 08:00 NW 7 10 Cloudy OVC015 52 48     86%     30.01        
Apr 23 07:53 NW 8 10 Cloudy BKN012 OVC017 52 48     86%     30.01 30.01      
Apr 23 06:53 NNW 7 10 Cloudy OVC010 52 48     86%     30 29.99      
Apr 23 05:53 NW 6 10 Cloudy OVC013 52 47     83%     29.98 29.97      
Apr 23 04:53 NW 6 10 Cloudy OVC012 52 48     86%     29.97 29.96      
Apr 23 04:42 NW 5 10 Cloudy OVC014 52 48     86%     29.96        
Apr 23 04:01 NW 6 10 Cloudy BKN015 OVC039 52 48     86%     29.97        
Apr 23 03:53 5 10 Cloudy SCT015 OVC039 52 48     86%     29.97 29.96      
Apr 23 03:22 6 10 Cloudy SCT013 OVC037 52 48     86%     29.96        
Apr 23 02:53 NW 6 10 Cloudy BKN013 OVC032 52 48     86%     29.97 29.96      
Apr 23 01:53   10 Cloudy BKN013 OVC023 53 49     86%     29.98 29.97      
Apr 23 01:32 NNW 8 10 Cloudy BKN013 BKN020 OVC029 53 49     86%     29.98        
Apr 23 00:53 NNW 6 10 Cloudy FEW015 BKN023 OVC028 53 49     86%     29.99 29.98      
Apr 22 23:53 3 10 Cloudy OVC017 54 49     83%     30 29.99      
Apr 22 22:53 N 7 10 Cloudy SCT015 BKN022 OVC027 55 50     83%     29.99 29.98      
Apr 22 21:53 5 6 Fog/Mist OVC015 55 52     89%     29.98 29.98      
Apr 22 21:50 N 6 5 Fog/Mist OVC015 55 52     88%     29.98        
Apr 22 21:34 N 5 10 Cloudy OVC014 56 52     87%     29.99        
Apr 22 20:53 N 5 10 Cloudy OVC015 57 52     83%     29.97 29.97      
Apr 22 19:53 NNE 6 10 Cloudy OVC010 57 53     87%     29.95 29.94      
Apr 22 18:53 NNE 6 10 Cloudy OVC009 58 54     87%     29.93 29.92      
Apr 22 18:18 5 6 Fog/Mist OVC009 58 54     87%     29.94        
Apr 22 17:53 6 10 Cloudy OVC011 59 55     87%     29.93 29.93      
Apr 22 17:41 7 10 Cloudy BKN011 OVC020 60 55     83%     29.93        
Apr 22 17:15 6 10 Cloudy OVC015 60 55     83%     29.92        
Apr 22 16:53 N 6 10 Cloudy OVC014 60 55     83%     29.91 29.91      
Apr 22 16:51 6 10 Cloudy OVC014 61 55     82%     29.91        
Apr 22 16:41 NNW 5 10 Cloudy OVC015 60 55     83%     29.91        
Apr 22 16:05 N 5 10 Cloudy BKN014 OVC019 61 55     81%     29.9        
Apr 22 15:53 NW 7 10 Cloudy OVC016 61 55     81%     29.9 29.89      
Apr 22 15:30 NW 6 10 Cloudy SCT010 OVC018 61 56     83%     29.9        
Apr 22 15:01 3 10 Cloudy BKN010 OVC016 60 56     86%     29.9        
Apr 22 14:53 NW 10 10 Cloudy BKN009 BKN016 OVC021 60 55     83%     29.9 29.9      
Apr 22 14:03 NNW 6 10 Cloudy BKN008 OVC014 60 57     90%     29.91        
Apr 22 13:53 NW 9 10 Cloudy OVC006 59 56     90%     29.91 29.9      
Apr 22 13:49 5 9 Cloudy OVC006 59 55     88%     29.91        
Apr 22 13:38 6 10 Cloudy OVC008 59 57     93%     29.91        
Apr 22 13:10 7 7 Cloudy OVC006 59 57     93%     29.9        
Apr 22 12:53 5 4 Fog/Mist OVC007 60 57     90%     29.9 29.89     0
Apr 22 12:45 NNW 8 5 Fog/Mist OVC007 59 57     93%     29.9        
Apr 22 12:32 7 7 Cloudy OVC005 59 57     93%     29.9        
Apr 22 12:19 NNW 7 5 Fog/Mist OVC003 60 58     93%     29.89        
Apr 22 12:03 NNW 6 2 Fog/Mist OVC002 61 59     93%     29.89        
Apr 22 11:53 6 1.5 Fog/Mist OVC002 61 60     97%     29.89 29.88 0    
Apr 22 11:48 NW 10 1.25 Light Rain and Fog/Mist OVC002 61 61     100%     29.89   0    
Apr 22 11:36 NNW 10 2 Fog/Mist OVC002 63 61     93%     29.88   0    
Apr 22 11:28 NNW 8 3 Fog/Mist OVC004 64 62     93%     29.87   0    
Apr 22 11:15 NW 10 10 Cloudy BKN005 OVC011 65 63     93%     29.87   0    
Apr 22 11:07 NW 10 2.5 Light Rain and Fog/Mist BKN005 BKN011 OVC032 66 64     93%     29.87   0    
Apr 22 10:53 SW 9 6 Fog/Mist BKN009 BKN024 OVC035 72 70     93%   73 29.85 29.84 0    
Apr 22 10:45 SW 8 2.5 Light Rain and Fog/Mist SCT008 BKN022 OVC029 72 69     91%   73 29.84   0    
Apr 22 10:24 SSW 8 9 Cloudy SCT008 SCT015 OVC023 72 69     91%   73 29.85        
Apr 22 10:07 SW 9 10 Cloudy SCT009 BKN014 OVC021 72 68     87%   73 29.85        
Apr 22 09:53 SSW 9 10 Cloudy FEW009 FEW016 OVC021 72 69     91%   73 29.84 29.83      
Apr 22 08:53 S 6 9 Cloudy FEW004 OVC023 69 67     93%     29.84 29.83      
Apr 22 08:28 S 9 10 Cloudy FEW004 BKN029 OVC050 68 66     93%     29.84        
Apr 22 08:18 S 7 10 Mostly Cloudy FEW004 BKN032 BKN060 68 66     93%     29.84        
Apr 22 07:53 SSE 7 10 Cloudy FEW038 OVC060 66 65     96%     29.84 29.84      
Apr 22 07:20 SSE 3 10 Cloudy SCT002 BKN031 OVC042 65 64     97%     29.85        
Apr 22 06:53 Calm 10 Cloudy OVC002 65 63     93%     29.84 29.83 0   1
Apr 22 05:53 ESE 3 9 Light Rain BKN003 BKN016 OVC028 64 62     93%     29.84 29.83 1    
Apr 22 05:43 Calm 10 Light Rain BKN003 BKN014 OVC021 64 63     96%     29.84   1    
Apr 22 05:38 Calm 6 Light Rain and Fog/Mist SCT003 SCT013 OVC021 64 63     96%     29.84   1    
Apr 22 05:34 3 3 Thunderstorms and Rain and Fog/Mist SCT013 OVC023 64 62     93%     29.83   1    
Apr 22 05:19 E 6 1.25 Thunderstorms and Heavy Rain and Fog/Mist BKN020 OVC036 64 62     93%     29.83   1    
Apr 22 05:06 E 7 2 Thunderstorms and Heavy Rain and Fog/Mist FEW005 BKN017 OVC043 64 62     93%     29.82   0    
Apr 22 04:55 NNE 5 7 Thunderstorms and Rain FEW005 OVC016 64 62     93%     29.83   0    
Apr 22 04:53 NE 7 7 Rain SCT005 BKN014 OVC021 64 62     93%     29.83 29.82 0    
Apr 22 04:19   6 Thunderstorms and Rain and Fog/Mist FEW005 BKN014 OVC048 69 67     93%     29.82   0    
Apr 22 04:09 3 6 Thunderstorms and Rain and Fog/Mist BKN018 OVC049 71 67     87%   72 29.81   0    
Apr 22 03:53 SSW 9 10 Light Rain BKN049 BKN060 OVC070 71 67     87%   72 29.79 29.78 0 0  
Apr 22 03:24 SSW 9 10 Light Rain FEW065 BKN100 BKN120 72 66     82%   73 29.78   0    
Apr 22 02:53 SSW 11 10 Partly Cloudy SCT090 73 66     79%   74 29.78 29.76      
Apr 22 01:53 SSW 13 10 Clear CLR 73 66     79%   74 29.78 29.77      
Apr 22 00:53 S 11 10 Mostly Clear FEW100 74 66     76%   75 29.79 29.78      
Apr 21 23:53 S 3 10 Mostly Cloudy SCT044 BKN060 73 66     79%   74 29.81 29.8      
Apr 21 22:53 Calm 10 Cloudy FEW049 SCT065 OVC110 72 66     82%   73 29.83 29.82      
Apr 21 21:53 Calm 10 Partly Cloudy FEW040 SCT048 72 66     82%   73 29.81 29.8      
Apr 21 20:53 Calm 10 Mostly Cloudy BKN060 74 67     79%   75 29.82 29.81      
Apr 21 19:53 Calm 10 Mostly Cloudy FEW060 BKN100 77 66     69%   78 29.81 29.8      
Apr 21 18:53 S 5 10 Mostly Clear FEW049 FEW100 80 65     60%   82 29.81 29.8      
Apr 21 17:53 S 5 10 Mostly Clear FEW047 FEW055 83 64     53%   84 29.81 29.8      
Apr 21 16:53 SSW 8 10 Mostly Clear FEW049 83 64     53%   84 29.82 29.81      
Apr 21 15:53 SW 10 10 Clear CLR 84 63     49%   85 29.83 29.82      
Apr 21 14:53 SW 7 10 Partly Cloudy SCT045 82 63     53%   83 29.86 29.85      
Apr 21 13:53 SW 10 10 Clear CLR 83 64     53%   84 29.89 29.87      
Apr 21 12:53 SSW 10 10 Clear CLR 82 66     58%   84 29.9 29.89      
Apr 21 11:53 SW 9 10 Mostly Cloudy SCT028 BKN039 BKN055 79 66     65%   80 29.94 29.93      
Apr 21 11:20 WSW 8 10 Cloudy BKN026 OVC035 80 66     62%   82 29.96        
Apr 21 10:53 SSW 13 10 Partly Cloudy FEW025 SCT037 77 65     66%   78 29.96 29.95      
Apr 21 09:53 SSW 9 10 Partly Cloudy FEW017 SCT024 75 66     74%   76 29.96 29.96      
Apr 21 09:26 WSW 5 10 Mostly Cloudy BKN015 BKN022 73 66     79%   74 29.97        
Apr 21 08:53 SSW 9 10 Mostly Cloudy BKN014 73 66     79%   74 29.97 29.96      
Apr 21 08:27 SSW 6 10 Cloudy FEW008 OVC013 72 67     84%   73 29.96        
Apr 21 07:53 SW 6 10 Mostly Cloudy BKN013 71 66     84%   72 29.97 29.96      
Apr 21 07:35 SW 6 10 Cloudy BKN013 OVC100 71 66     84%   72 29.97        
Apr 21 06:53 S 6 10 Cloudy SCT080 OVC095 70 66     87%     29.96 29.95      
Apr 21 05:53 SW 5 10 Mostly Cloudy BKN070 70 66     87%     29.96 29.94      
Apr 21 04:53 SSW 7 10 Cloudy OVC095 71 66     84%   72 29.95 29.94      
Apr 21 03:53 SSW 9 10 Cloudy OVC095 72 66     82%   73 29.96 29.95      
Apr 21 02:53 SSW 8 10 Cloudy OVC085 73 66     79%   74 29.96 29.95      
Apr 21 01:53 S 7 10 Mostly Cloudy BKN080 73 66     79%   74 29.98 29.96      
Apr 21 00:53 S 5 10 Cloudy OVC080 72 66     82%   73 29.99 29.98      
Apr 20 23:53 Calm 10 Cloudy OVC080 73 66     79%   74 30 29.99      
Apr 20 22:53 S 3 10 Clear CLR 72 66     82%   73 30.01 29.99      
Apr 20 21:53 S 3 10 Clear CLR 71 66     84%   72 30.01 30      
Apr 20 20:53 Calm 10 Clear CLR 72 66     82%   73 30 29.99      
Apr 20 19:53 Calm 10 Clear CLR 75 66     74%   76 29.99 29.98      
Apr 20 18:53 W 5 10 Mostly Clear FEW046 80 64     58%   82 29.99 29.98      
Apr 20 17:53 WSW 6 10 Mostly Cloudy BKN047 BKN055 84 63     49%   85 29.99 29.98      
Apr 20 16:53 SW 6 10 Partly Cloudy SCT046 83 63     51%   84 29.99 29.98      
Apr 20 15:53 SW 10 10 Mostly Clear FEW045 84 62     48%   85 30.01 30      
Apr 19 15:53 SSE 11 10 Mostly Cloudy BKN055 82 56     41%   82 30.08 30.06      
Apr 19 14:53 SSW 9 10 Partly Cloudy SCT050 83 60     46%   83 30.09 30.08      
Apr 19 13:53 7 10 Clear CLR 82 59     46%   82 30.11 30.1      
Apr 19 12:53 S 11 10 Partly Cloudy SCT044 82 60     47%   82 30.12 30.11      
Apr 19 11:53 S 10 10 Mostly Clear FEW035 80 62     54%   81 30.13 30.12      
Apr 19 11:36 SSE 9 10 Partly Cloudy SCT027 SCT035 80 64     58%   82 30.14        
Apr 19 11:26 S 10 10 Mostly Cloudy BKN027 BKN036 79 65     62%   80 30.14        
Apr 19 10:53 SSE 9 10 Partly Cloudy SCT020 78 66     67%   79 30.15 30.14      
Apr 19 10:27 S 8 10 Mostly Cloudy BKN020 77 66     69%   78 30.15        
Apr 19 09:53 SW 7 10 Clear CLR 75 66     74%   76 30.14 30.14      
Apr 19 08:53 S 5 10 Clear CLR 71 66     84%   72 30.14 30.13      
Apr 19 07:53 Calm 10 Mostly Clear FEW110 69 65     87%     30.12 30.11      
Apr 19 06:53 SSE 5 10 Clear CLR 67 64     90%     30.11 30.1      
Apr 19 05:53 S 3 10 Clear CLR 66 64     93%     30.11 30.1      
Apr 19 04:53 S 6 10 Clear CLR 67 64     90%     30.1 30.09      
Apr 19 03:53 SSE 6 10 Cloudy OVC090 67 64     90%     30.1 30.09      
Apr 19 02:53 SE 6 10 Clear CLR 67 65     93%     30.09 30.08      
Apr 19 01:53 SSE 5 7 Partly Cloudy SCT065 66 64     93%     30.1 30.09      
Apr 19 00:53 Calm 10 Mostly Cloudy FEW055 BKN070 67 65     93%     30.11 30.1      
Apr 18 22:53 W 3 10 Clear CLR 68 64     87%     30.08 30.07      
Apr 18 21:53 S 8 10 Clear CLR 69 66     90%     30.09 30.09      
Apr 18 20:53 S 3 8 Mostly Clear FEW120 68 66     93%     30.09 30.08      
Apr 18 19:53 Calm 7 Clear CLR 68 67     96%     30.07 30.06      
Apr 18 18:53 Calm 10 Mostly Cloudy FEW065 FEW090 BKN120 69 67     93%     30.07 30.06 0   1
Apr 18 17:53 E 7 10 Light Rain OVC110 69 66     90%     30.06 30.05 0    
Apr 18 17:49 E 8 10 Light Rain OVC100 70 66     88%     30.05   0    
Apr 18 17:34 SE 8 7 Light Rain FEW060 OVC095 69 66     90%     30.05   0    
Apr 18 17:25 E 5 10 Light Rain FEW046 SCT075 OVC095 69 66     90%     30.06   0    
Apr 18 17:10 E 8 3 Thunderstorms and Rain and Fog/Mist SCT037 BKN065 OVC090 69 66     90%     30.06   0    
Apr 18 17:05 ESE 9 1.5 Thunderstorms and Heavy Rain and Fog/Mist BKN039 BKN065 OVC075 69 65     87%     30.06   0    
Apr 18 16:53 ENE 8 0.75 Thunderstorms and Heavy Rain and Fog/Mist SCT028 BKN037 OVC075 68 66     93%     30.07 30.06 0    
Apr 18 16:49 E 9 1.75 Thunderstorms and Heavy Rain and Fog/Mist FEW023 BKN033 OVC070 70 66     88%     30.07   0    
Apr 18 15:53 SSE 7 6 Thunderstorms and Rain BKN040 OVC055 75 67     76%   76 30.03 30.03 0 0  
Apr 18 15:24 3 10 Partly Cloudy SCT041 81 65     58%   83 30.03        
Apr 18 14:53 WSW 7 10 Mostly Clear FEW090 83 66     57%   85 30.03 30.02      
Apr 18 13:53 NW 6 10 Mostly Cloudy SCT050 SCT065 BKN090 81 67     62%   83 30.05 30.04 0    
Apr 18 12:53 Calm 10 Mostly Clear FEW030 FEW060 81 65     58%   83 30.06 30.05      
Apr 18 12:43   10 Mostly Cloudy FEW028 SCT044 BKN060 81 66     61%   83 30.06        
Apr 18 12:16 Calm 10 Mostly Cloudy BKN027 BKN033 80 66     62%   82 30.07        
Apr 18 11:53 W 5 10 Mostly Clear FEW023 78 66     67%   79 30.07 30.06      
Apr 18 10:53 5 10 Clear CLR 73 66     79%   74 30.08 30.07      
Apr 18 10:35 Calm 10 Partly Cloudy SCT008 73 66     79%   74 30.08        
Apr 18 10:23 Calm 10 Cloudy OVC006 71 66     84%   72 30.09        
Apr 18 09:53 Calm 4 Fog/Mist OVC002 67 65     93%     30.08 30.08      
Apr 18 09:43 Calm 4 Fog/Mist OVC002 66 65     96%     30.08        
Apr 18 09:31 Calm 2 Fog/Mist OVC002 66 65     96%     30.08        
Apr 18 09:14 Calm 1 Fog/Mist OVC002 66 65     96%     30.08        
Apr 18 08:53 Calm 0.5 Fog VV002 66 65     96%     30.08 30.07      
Apr 18 08:44 Calm 0.5 Fog VV002 66 65     96%     30.08        
Apr 18 07:53 Calm 0.25 Fog VV002 64 64     100%     30.08 30.07      
Apr 18 06:53 ENE 3 0.25 Fog VV002 63 62     97%     30.06 30.05      
Apr 18 06:25 Calm 0.25 Fog VV002 63 62     97%     30.05        
Apr 18 06:03 Calm 0.5 Fog VV002 63 62     97%     30.04        
Apr 18 05:53 Calm 1.25 Fog/Mist OVC002 63 62     97%     30.04 30.03      
Apr 18 05:40 E 3 2 Fog/Mist OVC002 64 63     96%     30.04        
Apr 18 05:30 Calm 1.25 Fog/Mist OVC002 64 63     96%     30.04        
Apr 18 04:53 Calm 0.5 Fog VV002 64 63     96%     30.03 30.02      
Apr 18 04:50 Calm 0.5 Fog VV002 64 63     94%     30.03        
Apr 18 04:10 Calm 0.25 Fog VV002 64 63     96%     30.03        
Apr 18 04:02 Calm 0.5 Fog VV002 64 63     96%     30.03        
Apr 18 03:53 Calm 0.25 Fog VV002 64 63     96%     30.03 30.02      
Apr 18 03:32 Calm 0.25 Fog VV002 64 63     96%     30.02        
Apr 18 03:15 Calm 0.5 Fog VV002 64 63     96%     30.01        
Apr 18 03:03 Calm 0.25 Fog VV002 64 63     96%     30.01        
Apr 18 02:53 WNW 3 0.5 Fog VV002 64 63     96%     30.02 30.01      
Apr 18 02:32 Calm 1.75 Fog/Mist BKN002 65 63     93%     30.02        
Apr 18 02:25 Calm 9 Mostly Cloudy BKN001 65 62     90%     30.02        
Apr 18 02:17 Calm 9 Partly Cloudy SCT001 64 62     93%     30.02        
Apr 18 01:53 Calm 9 Partly Cloudy SCT085 64 62     93%     30.02 30.01      
Apr 18 00:53 Calm 7 Clear CLR 65 64     97%     30.03 30.02      
Apr 17 23:53 Calm 10 Clear   67 65     93%     30.02 30.01      
Apr 17 22:53 Calm 10 Clear CLR 67 65     93%     30.03 30.02      
Apr 17 22:35 Calm 10 Partly Cloudy FEW009 FEW021 SCT120 68 65     90%     30.03        
Apr 17 22:00 Calm 10 Cloudy FEW012 FEW020 OVC120 70 65     84%     30.03        
Apr 17 21:53 Calm 10 Cloudy FEW012 BKN029 OVC120 70 66     87%     30.03 30.02      
Apr 17 21:30 ENE 5 10 Mostly Cloudy BKN019 BKN120 70 65     84%     30.02        
Apr 17 20:53 ENE 3 10 Mostly Clear FEW023 70 65     84%     30.01 30      
Apr 17 20:45 ENE 5 10 Mostly Clear FEW023 FEW033 71 65     81%   72 30.01        
Apr 17 20:30 ESE 3 10 Mostly Cloudy SCT031 SCT042 BKN110 73 65     76%   74 30        
Apr 17 19:53 Calm 10 Cloudy FEW039 BKN070 OVC100 72 63     73%   72 30 29.99      
Apr 17 18:53 E 3 10 Clear CLR 77 62     60%   77 29.98 29.97     0
Apr 17 17:53 ENE 6 10 Clear CLR 79 60     52%   79 29.97 29.96      
Apr 17 16:53 N 5 10 Mostly Clear FEW038 80 61     52%   81 29.99 29.98      
Apr 17 15:53 6 10 Mostly Clear FEW046 FEW110 79 61     54%   79 29.99 29.98   0  
Apr 17 14:53 NW 7 10 Mostly Clear FEW049 FEW065 78 62     58%   78 30.02 30.01      
Apr 17 14:24 WNW 8 10 Mostly Cloudy FEW009 SCT013 BKN065 76 65     69%   76 30.04        
Apr 17 14:17 WNW 10 10 Partly Cloudy SCT011 76 66     71%   77 30.04        
Apr 17 14:15 WNW 10 10 Mostly Cloudy SCT010 BKN013 75 67     76%   76 30.04        
Apr 17 14:05 NW 10 10 Mostly Cloudy BKN007 BKN013 75 68     79%   76 30.04        
Apr 17 13:53 W 8 10 Mostly Cloudy SCT007 BKN100 73 68     84%   74 30.04 30.03 0    
Apr 17 13:46 NW 7 10 Mostly Cloudy FEW007 BKN095 73 68     84%   74 30.04   0    
Apr 17 13:20 NW 3 9 Light Rain FEW047 BKN090 BKN110 69 65     87%     30.05   0    
Apr 17 12:53 W 8 10 Mostly Cloudy FEW020 FEW029 BKN055 70 62     76%     30.06 30.05      
Apr 17 12:38 W 11 10 Thunderstorms SCT019 BKN030 OVC049 72 63     73%   72 30.07        
Apr 17 12:05 7 10 Mostly Cloudy BKN021 BKN025 BKN095 77 67     71%   78 30.07        
Apr 17 11:53 WNW 11 10 Mostly Cloudy SCT025 BKN095 78 67     69%   79 30.07 30.06      
Apr 17 11:15 W 9 10 Cloudy BKN026 BKN033 OVC070 76 65     69%   76 30.08        
Apr 17 10:53 W 10 10 Mostly Cloudy FEW035 BKN070 76 64     67%   76 30.08 30.07      
Apr 17 09:53 WSW 8 10 Clear CLR 75 67     76%   76 30.08 30.07      
Apr 17 08:53 WSW 8 10 Mostly Cloudy BKN110 71 67     87%   72 30.07 30.06      
Apr 17 07:53 SW 9 10 Cloudy OVC100 69 65     87%     30.07 30.06      
Apr 17 06:53 SSW 7 10 Partly Cloudy SCT095 67 64     90%     30.07 30.06      
Apr 17 05:53 SSW 8 10 Clear CLR 67 64     90%     30.05 30.04      
Apr 17 04:53 SW 7 10 Mostly Clear FEW049 67 63     87%     30.06 30.05      
Apr 17 03:53 S 3 10 Clear   65 63     93%     30.06 30.05      
Apr 17 02:53 S 3 10 Clear CLR 65 63     93%     30.05 30.04      
Apr 17 01:53 Calm 10 Clear CLR 67 64     90%     30.05 30.04      
Apr 17 00:53 SSE 3 10 Mostly Cloudy BKN049 BKN060 67 64     90%     30.06 30.05      
Apr 16 23:53 SE 5 10 Clear CLR 68 64     87%     30.06 30.05      
Apr 16 22:53 SSE 3 10 Clear CLR 69 65     87%     30.07 30.06      
Apr 16 21:53 Calm 10 Clear CLR 70 65     84%     30.08 30.07      
Apr 16 20:53 Calm 10 Clear CLR 72 66     82%   73 30.08 30.07      
Apr 16 19:53 SSE 5 10 Clear CLR 75 65     71%   76 30.05 30.05      
Apr 16 18:53 SSE 5 10 Clear CLR 79 64     60%   79 30.03 30.02      
Apr 16 17:53 SE 6 10 Clear CLR 80 63     56%   81 30.03 30.02      
Apr 16 16:53 SSE 9 10 Clear CLR 81 61     51%   82 30.03 30.03      
Apr 16 15:53 Calm 10 Clear CLR 81 62     53%   82 30.06 30.05      
Apr 16 14:53 Calm 10 Mostly Clear FEW043 FEW080 81 62     53%   82 30.1 30.09      
Apr 16 13:53 NW 6 10 Mostly Cloudy BKN037 79 62     56%   79 30.14 30.12      
Apr 16 12:53 SSW 8 10 Mostly Clear FEW030 80 63     56%   81 30.14 30.13      
Apr 16 11:53 S 7 10 Partly Cloudy SCT034 77 64     64%   77 30.15 30.14      
Apr 16 11:44 6 10 Mostly Cloudy BKN034 76 64     67%   76 30.16        
Apr 09 00:53 SSW 9 10 Clear CLR 65 54     68%     29.97 29.96      
Apr 08 23:53 S 7 10 Clear CLR 65 53     65%     29.97 29.96      
Apr 08 22:53 S 5 10 Clear CLR 65 53     65%     29.97 29.96      
Apr 08 21:53 SSE 5 10 Clear CLR 66 54     65%     29.97 29.96      
Apr 08 20:53 S 3 10 Clear CLR 68 53     59%     29.96 29.95      
Apr 08 19:53 S 5 10 Clear CLR 71 53     53%   70 29.95 29.95      
Apr 08 18:53 S 6 10 Clear CLR 75 51     43%   74 29.96 29.95      
Apr 08 17:53 S 8 10 Clear CLR 78 51     39%   77 29.96 29.96      
Apr 08 16:53 S 10 10 Clear CLR 79 49     35%   78 29.97 29.97      
Apr 08 15:53 SSE 10 10 Clear CLR 79 49     35%   78 30 29.99      
Apr 08 14:53 S 10 10 Clear CLR 79 49     35%   78 30.02 30.01      
Apr 08 13:53 7 10 Clear CLR 78 50     37%   77 30.05 30.04      
Apr 08 12:53 SW 10 10 Clear CLR 76 48     37%   75 30.08 30.07      
Apr 08 11:53 S 10 10 Clear CLR 73 48     41%   72 30.1 30.1      
Apr 08 10:53 S 7 10 Clear CLR 69 47     45%     30.12 30.11      
Apr 08 09:53 5 10 Clear CLR 64 43     46%     30.13 30.12      
Apr 08 08:53 S 10 10 Clear CLR 58 40     51%     30.12 30.12      
Apr 08 07:53 S 8 10 Clear CLR 52 38     59%     30.13 30.12      
Apr 08 06:53 S 5 10 Clear CLR 50 38     63% 48   30.12 30.12      
Apr 08 05:53 SSE 6 10 Clear CLR 49 38     66% 46   30.11 30.1      
Apr 08 04:53 SE 3 10 Clear CLR 49 38     66% 48   30.1 30.1      
Apr 08 03:53 SSE 5   Clear   51 37     59%     30.1 30.09      
Apr 08 02:53 SSE 5 10 Clear CLR 51 37     59%     30.11 30.1      
Apr 08 01:53 SSE 5 10 Clear CLR 54 33     45%     30.11 30.11      
Apr 08 00:53 SSE 6 10 Clear CLR 56 34     43%     30.12 30.11      
Apr 07 23:53 SSE 6 10 Clear CLR 55 36     48%     30.13 30.12      
Apr 07 22:53 SE 5 10 Clear CLR 54 38     55%     30.14 30.13      
Apr 07 21:53 Calm 10 Clear CLR 53 41     63%     30.14 30.13      
Apr 07 20:53 ESE 3 10 Clear CLR 55 40     57%     30.13 30.12      
Apr 07 19:53 Calm 10 Clear CLR 59 40     49%     30.13 30.12      
Apr 07 18:53 Calm 10 Clear CLR 68 37     32%     30.12 30.12      
Apr 07 17:53 3 10 Clear CLR 70 30     23%     30.13 30.12      
Apr 07 16:53 3 10 Clear CLR 71 32     24%   69 30.14 30.14      
Apr 07 15:53 6 10 Clear CLR 70 32     24%     30.16 30.16      
Apr 07 14:53 NW 7 10 Clear CLR 68 31     25%     30.19 30.19      
Apr 07 13:53 NNE 7 10 Clear CLR 67 31     26%     30.23 30.22      
Apr 07 12:53 N 7 10 Clear CLR 66 33     29%     30.24 30.24      
Apr 07 11:53 WNW 5 10 Clear CLR 62 32     32%     30.27 30.26      
Apr 07 10:53 E 6 10 Clear CLR 62 34     35%     30.28 30.27      
Apr 07 09:53 ENE 11 10 Clear CLR 60 35     39%     30.28 30.28      
Apr 07 08:53 N 6 10 Clear CLR 56 37     49%     30.27 30.27      
Apr 07 07:53 Calm 10 Clear CLR 47 40     76%     30.26 30.26      
Apr 07 06:53 WNW 3 10 Clear CLR 39 36     89% 37   30.24 30.23      
Apr 07 05:53 NW 3 10 Clear CLR 43 36     76% 41   30.22 30.21      
Apr 07 04:53 WNW 3 10 Clear CLR 42 36     79% 40   30.2 30.2      
Apr 07 03:53 Calm 10 Clear CLR 46 36     68%     30.21 30.2      
Apr 07 02:53 WNW 3 10 Clear CLR 47 35     63% 46   30.21 30.21      
Apr 07 01:53 Calm 10 Clear CLR 47 35     63%     30.21 30.21      
Apr 07 00:53 Calm 10 Clear CLR 51 34     52%     30.2 30.2      
Apr 06 23:53 WNW 3 10 Clear CLR 48 38     68% 47   30.19 30.18      
Apr 06 22:53 WNW 3 10 Clear CLR 50 38     63% 49   30.17 30.17      
Apr 06 21:53 WNW 3 10 Clear CLR 50 39     66% 49   30.16 30.16      
Apr 06 20:53 Calm 10 Clear CLR 52 39     61%     30.13 30.13      
Apr 06 19:53 Calm 10 Clear CLR 58 35     42%     30.11 30.11      
Apr 06 18:53 NW 7 10 Clear CLR 66 30     26%     30.1 30.1      
Apr 06 17:53 NW 11 10 Mostly Clear FEW090 68 31     25%     30.1 30.09      
Apr 06 16:53 NW 10 10 Clear CLR 68 31     25%     30.11 30.1      
Apr 06 15:53 WNW 14 10 Partly Cloudy SCT085 66 30     26%     30.12 30.11      
Apr 06 14:53 NW 11 10 Mostly Clear FEW075 67 33     28%     30.13 30.12      
Apr 06 13:53 WNW 9 10 Mostly Clear FEW070 68 36     31%     30.15 30.14      
Apr 06 12:53 WNW 14 10 Partly Cloudy SCT065 64 34     33%     30.16 30.16      
Apr 06 11:53 WNW 11 10 Mostly Clear FEW060 63 36     37%     30.18 30.18      
Apr 06 10:53 NNW 8 10 Clear CLR 60 35     39%     30.19 30.19      
Apr 06 09:53 WNW 11 10 Clear CLR 58 37     46%     30.18 30.18      
Apr 06 08:53 WNW 6 10 Clear CLR 54 41     61%     30.17 30.17      
Apr 06 07:53 W 7 10 Clear CLR 47 41     80% 44   30.15 30.15      
Apr 06 06:53 W 5 10 Clear CLR 44 40     85% 41   30.12 30.11      
Apr 06 05:53 W 5 10 Clear CLR 46 40     79% 44   30.08 30.07      
Apr 06 04:53 W 6 10 Clear CLR 47 40     76% 44   30.05 30.05      
Apr 06 03:53 W 6 10 Clear CLR 48 40     73% 45   30.01 30.01      
Apr 06 02:53 W 8 10 Clear CLR 50 40     68% 47   30.01 30.01      
Apr 06 00:53 W 7 10 Clear CLR 52 40     63%     30 29.99      
Apr 05 23:53 W 7 10 Clear CLR 52 41     66%     30 29.99      
Apr 05 22:53 W 7 10 Clear CLR 53 41     63%     29.99 29.98      
Apr 05 21:53 W 9 10 Clear CLR 55 41     59%     29.98 29.98      
Apr 05 20:53 W 6 10 Clear CLR 56 42     60%     29.96 29.96      
Apr 05 19:53 W 9 10 Clear CLR 57 41     55%     29.93 29.93      
Apr 05 18:53 W 16 10 Clear CLR 60 40     47%     29.9 29.9      
Apr 05 17:53 W 16 10 Mostly Cloudy SCT050 BKN060 60 41     49%     29.88 29.87      
Apr 05 16:53 W 16 10 Mostly Cloudy SCT040 BKN049 BKN060 61 43     52%     29.87 29.86      
Apr 05 15:53 W 22 10 Cloudy and Windy BKN046 OVC055 59 42     53%     29.85 29.85      
Apr 05 14:53 W 18 10 Clear   60 43     53%     29.83 29.83      
Apr 05 13:53 W 16 10 Cloudy BKN036 OVC045 60 44     55%     29.82 29.81      
Apr 05 12:53 W 10 10 Cloudy OVC035 59 44     58%     29.81 29.81      
Apr 05 11:53 W 18 10 Cloudy OVC039 60 43     53%     29.79 29.78      
Apr 05 10:53 WSW 13 10 Partly Cloudy SCT034 61 44     54%     29.77 29.76      
Apr 05 10:21 WSW 18 10 Mostly Clear FEW029 60 45     57%     29.76        
Apr 05 09:53 W 17 10 Mostly Cloudy BKN027 BKN032 60 47     62%     29.74 29.74      
Apr 05 08:53 W 15 10 Clear CLR 65 52     63%     29.7 29.69      
Apr 05 07:53 WSW 13 10 Clear CLR 66 58     75%     29.68 29.67      
Apr 05 06:53 SSW 8 10 Clear CLR 63 57     81%     29.66 29.65      
Apr 05 05:53 S 5 10 Clear CLR 63 55     75%     29.66 29.65      
Apr 05 04:53 S 6 10 Clear   64 54     70%     29.68 29.67      
Apr 05 04:19 SSW 3 10 Mostly Cloudy BKN030 BKN090 66 54     65%     29.69        
Apr 05 03:53 W 9 10 Cloudy BKN025 OVC090 68 55     63%     29.7 29.69      
Apr 05 03:49 W 9 10 Mostly Cloudy BKN025 BKN090 68 55     64%     29.7        
Apr 05 02:53 SSW 13 10 Partly Cloudy SCT026 69 54     59%     29.67 29.66      
Apr 05 01:53 SSW 10 10 Mostly Cloudy BKN100 69 54     59%     29.67 29.66      
Apr 05 00:53 S 6 10 Clear CLR 69 52     54%     29.67 29.66      
Apr 04 23:53 SSW 13 10 Clear CLR 73 51     46%   72 29.67 29.65      
Apr 04 22:53 S 6 10 Clear CLR 73 51     46%   72 29.68 29.66      
Apr 04 21:53 S 9 10 Clear CLR 73 53     50%   72 29.68 29.67      
Apr 04 20:53 SSE 6 10 Clear CLR 73 57     57%   73 29.69 29.68      
Apr 04 19:53 SSE 5 10 Clear CLR 75 58     55%   75 29.69 29.68      
Apr 04 18:53 SSE 7 10 Clear CLR 80 58     47%   80 29.69 29.68      
Apr 04 17:53 S 10 10 Clear CLR 83 56     40%   82 29.69 29.68      
Apr 04 16:53 S 10 10 Clear CLR 84 57     40%   83 29.69 29.68      
Apr 04 15:53 S 8 10 Clear CLR 84 55     37%   83 29.7 29.69      
Apr 04 14:53 SSE 10 10 Clear CLR 84 56     38%   83 29.72 29.71      
Apr 04 13:53 S 11 10 Clear CLR 83 54     37%   82 29.75 29.74      
Apr 04 12:53 SSE 11 10 Clear CLR 81 57     44%   81 29.76 29.75      
Apr 04 11:53 6 10 Clear CLR 77 58     52%   77 29.79 29.78      
Apr 04 10:53 SE 7 10 Clear CLR 74 58     57%   74 29.81 29.8      
Apr 04 08:53 SSE 5 10 Clear CLR 65 58     78%     29.81 29.8      
Apr 04 07:53 Calm 10 Clear CLR 59 56     90%     29.79 29.79      
Apr 04 06:53 S 3 10 Clear CLR 55 52     89%     29.79 29.78      
Apr 04 05:53 Calm 10 Clear CLR 54 52     93%     29.78 29.77      
Apr 04 04:53 Calm 10 Clear CLR 54 53     97%     29.77 29.76      
Apr 04 03:53 Calm 10 Clear CLR 56 53     90%     29.76 29.75      
Apr 04 02:53 Calm 10 Clear CLR 57 54     89%     29.75 29.74      
Apr 04 01:53 W 3 10 Clear CLR 59 54     83%     29.76 29.75      
Apr 04 00:53 WSW 5 10 Clear CLR 62 55     78%     29.76 29.75      
Apr 03 23:53 WSW 3 10 Clear CLR 61 55     81%     29.75 29.74      
Apr 03 22:53 SW 5 10 Clear CLR 65 55     70%     29.74 29.73      
Apr 03 21:53 SW 3 10 Clear CLR 65 55     70%     29.73 29.72      
Apr 03 20:53 SW 5 10 Clear CLR 66 55     68%     29.7 29.7      
Apr 03 19:53 SSW 5 10 Clear CLR 69 55     61%     29.67 29.66      
Apr 03 18:53 WSW 7 10 Clear CLR 74 53     48%   73 29.65 29.64      
Apr 03 17:53 SW 10 10 Clear CLR 76 53     45%   75 29.62 29.62      
Apr 03 16:53 SW 10 10 Clear CLR 76 52     43%   75 29.62 29.61      
Apr 03 15:53 W 18 10 Clear CLR 76 52     43%   75 29.63 29.62      
Apr 03 14:53 W 13 10 Clear   75 53     46%   74 29.63 29.62      
Apr 03 13:53 SW 14 10 Mostly Clear FEW038 73 56     55%   73 29.64 29.63      
Apr 03 12:53 WSW 15 10 Mostly Clear FEW060 FEW075 72 57     59%   72 29.65 29.64     0
Apr 03 11:53 WSW 17 10 Partly Cloudy SCT026 SCT033 70 58     66%     29.65 29.64      
Apr 03 11:44 7 10 Mostly Cloudy FEW024 SCT029 BKN035 69 58     68%     29.65        
Apr 03 10:53 WSW 10 10 Mostly Cloudy BKN020 BKN024 68 60     76%     29.66 29.65      
Apr 03 10:11 WSW 9 10 Clear   67 61     81%     29.66        
Apr 03 10:09 WSW 10 10 Clear   67 62     84%     29.66        
Apr 03 10:00 SW 8 10 Clear   66 63     90%     29.65        
Apr 03 09:53 SW 7 10 Clear   67 63     87%     29.65 29.65 0 0  
Apr 03 08:53 SW 11 3 Light Rain and Fog/Mist FEW009 BKN031 OVC046 64 61     90%     29.66 29.65 0    
Apr 03 08:45 WSW 8 1.75 Heavy Rain and Fog/Mist FEW009 BKN022 OVC046 64 62     93%     29.66   0    
Apr 03 08:38 SW 10 5 Light Rain and Fog/Mist FEW009 BKN024 OVC037 65 62     90%     29.66   0    
Apr 03 08:26 SW 9 10 Cloudy BKN009 BKN028 OVC042 65 62     90%     29.66        
Apr 03 08:19 SSW 9 10 Cloudy SCT009 BKN014 OVC042 65 62     90%     29.65        
Apr 03 07:53 SW 8 10 Cloudy BKN010 OVC014 65 62     90%     29.64 29.63 0    
Apr 03 07:50 SSW 11 10 Cloudy BKN010 OVC014 64 63     94%     29.64   0    
Apr 03 06:53 SSW 9 9 Light Rain BKN007 OVC013 64 62     93%     29.63 29.62 0   0
Apr 03 05:53 S 7 10 Mostly Cloudy BKN008 64 61     90%     29.59 29.59      
Apr 03 05:49 S 6 10 Mostly Cloudy BKN008 64 61     88%     29.59        
Apr 03 05:32 S 10 10 Partly Cloudy SCT008 SCT017 64 61     90%     29.6        
Apr 03 05:16 SSW 9 10 Mostly Cloudy SCT009 BKN022 64 61     90%     29.6        
Apr 03 05:01 SSW 8 10 Cloudy BKN009 BKN015 OVC022 64 62     93%     29.61        
Apr 03 04:53 SSW 9 10 Cloudy SCT007 BKN016 OVC022 64 61     90%     29.63 29.62      
Apr 03 04:45 SSW 9 10 Cloudy SCT009 BKN018 OVC043 64 62     93%     29.63        
Apr 03 03:53 6 10 Cloudy OVC017 64 61     90%     29.62 29.61   0  
Apr 03 03:24 SSE 8 10 Cloudy OVC017 64 61     90%     29.62        
Apr 03 02:53 S 8 10 Cloudy OVC012 64 62     93%     29.66 29.65      
Apr 03 01:53 SSE 9 10 Cloudy OVC012 65 62     90%     29.66 29.65 0    
Apr 03 01:29 S 9 10 Cloudy OVC011 65 62     90%     29.66   0    
Apr 03 01:03 SE 14 10 Cloudy BKN008 OVC012 65 62     90%     29.66        
Apr 03 00:53 S 7 10 Cloudy OVC006 65 62     90%     29.67 29.66 0   0
Apr 03 00:38   10 Cloudy OVC006 65 63     93%     29.66   0    
Apr 02 23:53 SSE 14 10 Light Rain OVC007 65 63     93%     29.67 29.66 0    
Apr 02 23:48 S 14 10 Light Rain OVC007 64 63     94%     29.71   0    
Apr 02 23:29 SSE 14 10 Light Rain OVC007 65 62     90%     29.67   0    
Apr 02 23:27 SSE 16 10 Light Rain OVC006 65 62     90%     29.66   0    
Apr 02 23:08 SE 18 10 Thunderstorms and Rain OVC006 64 62     93%     29.63   0    
Apr 02 22:53 SE 16 10 Thunderstorms and Rain BKN007 OVC100 64 62     93%     29.64 29.63 0    
Apr 02 22:43 ESE 14 10 Thunderstorms and Rain BKN007 BKN055 OVC100 64 62     93%     29.66   0    
Apr 02 22:28 ESE 14 10 Light Rain SCT009 SCT060 OVC100 64 62     93%     29.65   0    
Apr 02 22:12 E 10 9 Thunderstorms and Rain SCT009 BKN070 OVC100 64 62     93%     29.66   0    
Apr 02 22:04 E 8 9 Thunderstorms and Rain BKN009 BKN032 OVC100 64 61     90%     29.69   0    
Apr 02 21:53 SE 6 8 Thunderstorms and Rain SCT005 BKN075 OVC100 63 62     97%     29.7 29.7 0 0  
Apr 02 21:42 5 10 Thunderstorms and Rain SCT007 BKN085 OVC100 63 61     93%     29.68   0    
Apr 02 21:31 E 11 6 Rain and Fog/Mist SCT010 BKN055 OVC110 63 61     93%     29.68   0    
Apr 02 21:21   10 Light Rain SCT008 BKN015 OVC110 63 61     93%         0    
Apr 02 21:05   10 Light Rain SCT010 OVC018 62 60     93%     29.76   0    
Apr 02 20:53 E 13 10 Light Rain FEW004 BKN018 OVC023 62 60     93%     29.68 29.67 0    
Apr 02 20:38 S 8 10 Light Rain SCT006 BKN024 OVC110 61 60     97%     29.7   0    
Apr 02 20:26 E 14 10 Light Rain SCT004 BKN055 OVC110 61 59     93%     29.62   0    
Apr 02 19:53 ENE 11 10 Cloudy OVC003 60 58     93%     29.67 29.66      
Apr 02 19:50 ENE 16 10 Cloudy OVC003 61 57     88%              
Apr 02 19:34 ESE 8 10 Thunderstorms OVC003 60 58     93%     29.74        
Apr 02 19:19 6 10 Cloudy OVC003 60 58     93%     29.75        
Apr 02 18:53 SE 8 7 Cloudy OVC002 60 59     96%     29.75 29.75 0   1
Apr 02 18:45 E 13 5 Fog/Mist OVC002 61 59     93%     29.72   0    
Apr 02 18:38 E 13 6 Light Rain and Fog/Mist BKN002 OVC100 61 60     97%     29.71   0    
Apr 02 18:31 ENE 9 5 Thunderstorms and Rain and Fog/Mist BKN003 BKN070 OVC100 61 59     93%     29.73   0    
Apr 02 18:23 ENE 13 4 Thunderstorms and Rain and Fog/Mist SCT003 BKN075 OVC100 61 59     93%     29.73   0    
Apr 02 17:53 SSE 7 6 Rain and Fog/Mist FEW006 SCT018 OVC100 61 59     93%     29.83 29.83 0    
Apr 02 17:51 SSE 9 6 Rain and Fog/Mist FEW006 SCT018 OVC095 61 61     100%     29.83   0    
Apr 02 17:38 NNE 6 5 Light Rain and Fog/Mist FEW033 OVC100 61 59     93%     29.76   0    
Apr 02 17:14 WSW 8 3 Rain and Fog/Mist SCT023 BKN085 OVC110 61 59     93%     29.82   0    
Apr 02 17:04 N 3 3 Thunderstorms and Rain and Fog/Mist SCT021 BKN044 OVC090 62 59     90%     29.79   0    
Apr 02 16:58 W 10 2 Thunderstorms and Rain and Fog/Mist SCT018 BKN023 OVC043 62 59     90%     29.8   0    
Apr 02 16:53 WNW 13 0.75 Thunderstorms and Heavy Rain and Fog/Mist FEW012 BKN023 OVC041 62 59     90%     29.8 29.8 0    
Apr 02 16:46 WSW 11 1.25 Thunderstorms and Heavy Rain and Fog/Mist FEW012 SCT025 OVC041 62 59     90%     29.79   0    
Apr 02 15:53 NW 8 5 Thunderstorms and Rain and Fog/Mist SCT045 BKN080 OVC110 63 59     87%     29.71 29.7 0 0  
Apr 02 15:05 NNW 5 3 Thunderstorms and Rain and Fog/Mist SCT036 BKN045 OVC100 63 59     87%     29.78   0    
Apr 02 14:53 7 1.75 Thunderstorms and Rain and Fog/Mist SCT034 BKN043 OVC100 64 60     87%     29.79 29.78 0    
Apr 02 14:06 Calm 8 Thunderstorms and Rain FEW075 OVC110 65 58     78%     29.83   0    
Apr 02 13:53 NE 5 10 Light Rain FEW060 FEW075 OVC110 66 58     75%     29.84 29.84 0    
Apr 02 13:46 NE 8 10 Light Rain SCT060 OVC110 66 58     75%     29.84   0    
Apr 02 13:39 ENE 5 10 Light Rain SCT060 OVC110 67 57     71%     29.86   0    
Apr 02 13:24 ESE 5 10 Thunderstorms and Rain BKN060 OVC100 70 55     59%     29.89   0    
Apr 02 12:53 ESE 6 10 Mostly Cloudy BKN055 BKN110 71 55     57%   71 29.89 29.88      
Apr 02 12:38 ESE 3 10 Partly Cloudy SCT110 72 54     53%   71 29.89        
Apr 02 11:53 E 9 10 Clear CLR 73 55     53%   73 29.91 29.9      
Apr 02 10:53 E 10 10 Clear CLR 73 55     53%   73 29.93 29.92      
Apr 02 09:53 E 9 10 Clear CLR 68 54     61%     29.96 29.95      
Apr 02 08:53 ENE 8 10 Clear CLR 61 54     78%     29.98 29.97      
Apr 02 07:53 ENE 8 10 Clear CLR 59 53     81%     30.02 30.01      
Apr 02 06:53 NNE 3 10 Clear CLR 59 53     81%     30.03 30.02      
Apr 02 05:53 NE 5 10 Clear CLR 59 54     83%     30.01 30      
Apr 02 04:53 NNE 3 10 Clear CLR 58 53     84%     29.99 29.98      
Apr 02 03:53 NE 6 10 Clear CLR 58 54     87%     29.98 29.97      
Apr 02 02:53 E 3 10 Clear CLR 59 53     81%     29.98 29.97      
Apr 02 01:53 NE 6 10 Clear CLR 60 54     80%     29.99 29.98      
Apr 02 00:53 NNE 5 10 Clear CLR 63 54     72%     30.01 30.01      
Apr 01 23:53 ENE 5 10 Clear CLR 62 54     75%     30 29.99      
Apr 01 21:53 NE 3 10 Clear CLR 63 56     78%     30.02 30.01      
Apr 01 20:53 NE 3 10 Clear CLR 67 55     66%     30 29.99      
Apr 01 19:53 ENE 7 10 Clear   71 55     57%   71 29.99 29.98      
Apr 01 18:53 ENE 9 10 Clear CLR 76 54     47%   75 30 29.99      
Apr 01 17:53 E 9 10 Clear CLR 79 54     42%   79 30 29.99      
Apr 01 16:53 E 13 10 Clear   80 54     41%   80 30 30      
Apr 01 15:53 E 13 10 Clear CLR 80 53     39%   80 30.01 30      
Apr 01 14:53 6 10 Clear CLR 79 54     42%   79 30.04 30.03      
Apr 01 13:53 ENE 11 10 Clear CLR 77 54     45%   77 30.06 30.05      
Apr 01 12:53 NE 11 10 Clear CLR 75 53     46%   74 30.07 30.07      
Apr 01 11:53 E 8 10 Clear CLR 72 53     51%   71 30.09 30.08      
Apr 01 10:53 ENE 7 10 Clear CLR 69 53     57%     30.1 30.09      
Apr 01 09:53 NE 10 10 Clear CLR 64 52     65%     30.09 30.08      
Apr 01 08:53 ENE 10 10 Clear CLR 60 52     75%     30.07 30.06      
Apr 01 07:53 ENE 9 10 Clear CLR 57 51     81%     30.06 30.05      
Apr 01 06:53 NE 5 10 Clear CLR 53 50     89%     30.04 30.03      
Apr 01 05:53 NE 5 10 Clear CLR 53 50     89%     30.01 30.01      
Apr 01 04:53 Calm 10 Clear CLR 56 50     80%     30 29.99      
Apr 01 03:53 Calm 10 Clear CLR 56 50     80%     29.98 29.98      
Apr 01 02:53 Calm 10 Clear CLR 58 51     78%     29.98 29.97      
Apr 01 01:53 ENE 3 10 Clear CLR 58 53     84%     29.96 29.95      
Apr 01 00:53 ENE 3 10 Clear CLR 59 54     83%     29.95 29.94      
Mar 31 23:53 NE 3 10 Clear CLR 58 54     87%     29.93 29.93      
Mar 31 22:53 Calm 10 Clear CLR 59 55     87%     29.92 29.91      
Mar 31 21:53 SE 3 10 Clear CLR 66 55     68%     29.91 29.91      
Mar 31 20:53 SSE 5 10 Clear CLR 69 54     59%     29.89 29.89      
Mar 31 19:53 Calm 10 Clear CLR 70 54     57%     29.87 29.86      
Mar 31 18:53 S 3 10 Clear CLR 77 51     40%   76 29.86 29.85      
Mar 31 17:53 WNW 7 10 Clear CLR 78 50     37%   77 29.85 29.84      
Mar 31 16:53 Calm 10 Clear CLR 78 50     37%   77 29.85 29.85      
Mar 31 15:53 3 10 Clear CLR 78 49     36%   77 29.85 29.84      
Mar 31 14:53 5 10 Clear CLR 77 49     37%   76 29.86 29.85      
Mar 31 13:53 SSW 6 10 Clear CLR 74 49     41%   73 29.88 29.87      
Mar 31 11:53 5 10 Clear CLR 68 48     49%     29.91 29.91      
Mar 31 10:53 6 10 Clear CLR 64 47     54%     29.92 29.92      
Mar 31 09:53 ENE 3 10 Clear CLR 60 46     60%     29.91 29.9      
Mar 31 08:53 N 5 10 Clear CLR 56 45     67%     29.9 29.89      
Mar 31 07:53 Calm 10 Clear CLR 52 47     83%     29.88 29.88      
Mar 31 06:53 Calm 10 Clear CLR 48 44     86%     29.86 29.85      
Mar 31 05:53 NW 3 10 Clear CLR 47 44     90% 46   29.83 29.83      
Mar 31 04:53 W 3 10 Clear CLR 47 45     93% 46   29.82 29.81      
Mar 31 03:53 WNW 3 10 Clear CLR 48 45     89% 47   29.81 29.8      
Mar 31 02:53 Calm 10 Clear CLR 49 46     90%     29.8 29.8      
Mar 31 01:53 W 3 10 Clear CLR 50 47     89% 49   29.79 29.78      
Mar 31 00:53 Calm 10 Clear CLR 49 47     93%     29.79 29.78      
Mar 30 23:53 Calm 10 Clear CLR 52 48     86%     29.78 29.78      
Mar 30 22:53 Calm 10 Clear CLR 53 47     80%     29.78 29.77      
Mar 30 21:53 Calm 10 Clear CLR 58 47     67%     29.77 29.77      
Mar 30 20:53 WNW 5 10 Clear   60 46     60%     29.75 29.74      
Mar 30 19:53 W 7 10 Clear CLR 63 45     52%     29.73 29.72      
Mar 30 18:53 W 8 10 Mostly Cloudy BKN060 66 45     47%     29.72 29.71      
Mar 30 17:53 W 14 10 Clear   67 44     44%     29.71 29.7      
Mar 30 16:53 W 11 10 Mostly Cloudy BKN055 69 45     42%     29.7 29.69      
Mar 30 15:53 WSW 15 10 Clear CLR 71 45     39%   70 29.69 29.68      
Mar 30 14:53 W 15 10 Clear CLR 71 46     41%   70 29.69 29.68      
Mar 30 13:53     Clear   70        %     29.71 29.7      
Mar 30 12:53     Clear   69 49     49%     29.72 29.71      
Mar 30 11:53 WSW 15 10 Clear   67 49     52%     29.74 29.73      
Mar 30 10:53 SW 14 10 Partly Cloudy SCT085 64 50     60%     29.77 29.76      
Mar 30 09:53 WSW 14 10 Partly Cloudy FEW018 SCT090 62 53     72%     29.78 29.77      
Mar 30 09:04 SW 11 10 Mostly Cloudy SCT015 BKN100 63 56     78%     29.78        
Mar 30 08:53 WSW 14 10 Mostly Cloudy BKN015 BKN100 65 59     81%     29.77 29.76      
Mar 30 07:53 SSW 8 10 Mostly Cloudy SCT014 BKN032 BKN048 65 61     87%     29.74 29.74      
Mar 30 07:31 SW 7 10 Cloudy SCT011 BKN050 OVC060 65 62     90%     29.74        
Mar 30 07:23 SW 7 10 Cloudy SCT009 BKN015 OVC050 65 62     90%     29.74        
Mar 30 07:15 SW 7 10 Cloudy SCT009 BKN013 OVC055 65 62     90%     29.74        
Mar 30 07:02 SW 11 10 Cloudy BKN009 OVC015 65 62     90%     29.74        
Mar 30 06:53 SW 11 10 Cloudy SCT010 BKN013 OVC020 66 62     87%     29.74 29.73     1
Mar 30 06:44 SSW 9 10 Cloudy BKN010 OVC016 66 63     90%     29.74        
Mar 30 05:53 S 9 10 Cloudy BKN009 OVC018 66 63     90%     29.73 29.72      
Mar 30 05:00 S 11 10 Cloudy OVC009 65 63     93%     29.7        
Mar 30 04:53 S 9 10 Cloudy OVC010 65 63     93%     29.71 29.7      
Mar 30 04:33 S 10 10 Mostly Cloudy BKN011 65 63     93%     29.71        
Mar 30 03:53 S 8 10 Mostly Cloudy BKN075 66 63     90%     29.71 29.7 0 1  
Mar 30 02:53 SSW 10 10 Light Rain FEW024 BKN048 OVC065 66 63     90%     29.75 29.74 0    
Mar 30 02:30 SSW 14 5 Light Rain BKN036 BKN050 OVC070 67 62     84%     29.74   0    
Mar 30 02:03 S 13 2.5 Thunderstorms and Heavy Rain and Fog/Mist BKN030 BKN060 OVC080 66 63     90%     29.74   0    
Mar 30 01:53 SSW 11 10 Cloudy SCT030 BKN060 OVC095 67 61     81%     29.74 29.73      
Mar 30 01:38 S 9 10 Cloudy SCT032 BKN055 OVC065 66 61     84%     29.75        
Mar 30 00:53 S 8 10 Cloudy BKN100 OVC120 65 61     87%     29.76 29.75     0
Mar 29 23:53 SE 3 10 Partly Cloudy SCT110 64 60     87%     29.75 29.74      
Mar 29 22:53 SSE 8 10 Clear CLR 66 58     75%     29.76        
Mar 29 21:53 S 10 10 Partly Cloudy FEW070 FEW090 SCT110 69 56     63%     29.71   0 0  
Mar 29 21:39 SE 15 9 Light Rain FEW045 BKN090 OVC100 68 58     70%         0    
Mar 29 21:30 S 18 7 Rain FEW065 BKN085 OVC100 68 60     76%     29.79   0    
Mar 29 21:11 SW 20 10 Light Rain OVC100 70 62     76%     29.83   0    
Mar 29 20:53   10 Light Rain OVC110 73 63     71%   73 29.8 29.79 0    
Mar 29 19:53 SSE 14 10 Mostly Clear FEW041 77 62     60%   77 29.75 29.74      
Mar 29 18:53 S 6 10 Clear CLR 78 61     56%   78 29.76 29.75      
Mar 29 17:53 SSW 11 10 Clear CLR 79 61     54%   79 29.78 29.77      
Mar 29 16:53 S 16 10 Clear CLR 80 60     51%   81 29.76 29.75      
Mar 29 15:53 S 15 10 Partly Cloudy SCT048 81 59     47%   81 29.78 29.77      
Mar 29 14:53 S 15 10 Mostly Clear FEW043 81 59     47%   81 29.81 29.8      
Mar 29 13:53 SSE 18 10 Clear   80 60     51%   81 29.84 29.83      
Mar 29 12:53 S 14 10 Clear CLR 78 60     54%   78 29.87 29.86      
Mar 29 11:53 S 10 10 Clear   78 61     56%   78 29.9 29.89      
Notice The following observation data may not be complete
Mar 29 10:53     Clear            %     29.92        
Mar 29 09:53 SSE 10 10 Clear CLR 72 64     76%   72 29.92 29.91      
Mar 29 09:00 SE 14 10 Mostly Clear FEW009 70 65     84%     29.9        
Mar 29 08:53 SE 11 10 Clear CLR 69 65     87%     29.92 29.91      
Mar 29 07:53 SSW 9 8 Partly Cloudy FEW008 SCT028 66 64     93%     29.94 29.93      
Mar 29 07:28 SSW 7 7 Partly Cloudy SCT013 SCT018 SCT026 65 63     93%     29.93        
Mar 29 07:12 SSW 7 8 Mostly Cloudy SCT014 BKN022 66 63     90%     29.93        
Mar 29 06:53 SW 8 9 Clear CLR 65 63     93%     29.92 29.91      
Mar 29 05:53 SSE 3 7 Clear CLR 64 62     93%     29.83 29.83      
Mar 29 04:53 Calm 6 Fog/Mist CLR 64 62     93%     29.85 29.84      
Mar 29 03:53 Calm 6 Fog/Mist CLR 63 61     93%     29.86 29.85      
Mar 29 02:53 Calm 8 Mostly Cloudy SCT050 BKN060 64 61     90%     29.86 29.85      
Mar 29 01:53 Calm 9 Clear CLR 66 62     87%     29.87 29.86      
Mar 29 00:53 E 3 10 Mostly Clear FEW050 FEW065 68 63     84%     29.87 29.86      
Mar 28 23:53 Calm 10 Partly Cloudy FEW055 SCT070 66 63     90%     29.88 29.87      
Mar 28 22:53 Calm 10 Clear CLR 67 62     84%     29.89 29.88      
Mar 28 21:53 E 3 10 Clear CLR 70 63     78%     29.88 29.88      
Mar 28 20:53 ENE 3 10 Clear CLR 70 63     78%     29.88 29.87      
Mar 28 19:53 ESE 3 10 Clear CLR 75 63     66%   75 29.87 29.86      
Mar 28 18:53 SE 3 10 Clear CLR 78 62     58%   78 29.87 29.86      
Mar 28 17:53 ESE 9 10 Clear CLR 80 63     56%   81 29.88 29.87      
Mar 28 16:53 S 9 10 Mostly Cloudy FEW034 SCT060 BKN080 80 65     60%   82 29.88 29.87      
Mar 28 15:53 SSE 9 10 Mostly Clear FEW038 81 63     54%   82 29.89 29.88      
Mar 28 14:53 5 10 Cloudy BKN037 OVC048 80 63     56%   81 29.91 29.9      
Mar 28 13:53 NNE 5 10 Cloudy BKN036 OVC044 79 62     56%   79 29.94 29.93      
Mar 28 12:53   10 Clear CLR 79 61     54%   79 29.96 29.95      
Mar 28 11:53 SSE 6 10 Mostly Clear FEW027 76 60     58%   76 29.99 29.98      
Mar 28 10:53   10 Clear   73 58     59%   73 29.99 29.98